Wind_Speed
41 36 30 30 26 26 27 26 27 28 24 23 25 27 32 36 38 42 44 44 45 43 47 49 49 50 50 51 53 53 49 43
34 30 33 29 25 23 24 23 20 22 24 26 26 25 25 28 33 36 40 42 45 48 47 50 52 56 55 53 52 54 53 48
34 34 26 24 23 23 25 25 28 29 28 32 33 35 37 34 36 36 39 40 41 45 42 48 49 51 53 58 55 55 56 54
32 27 26 28 31 29 31 30 31 35 36 37 37 35 37 42 48 46 44 42 42 41 43 47 52 51 49 60 59 61 56 58
24 26 28 28 34 36 30 31 31 32 35 35 36 38 42 48 52 49 51 50 45 45 46 41 49 47 52 57 55 59 64 60
22 25 27 27 33 38 39 33 34 36 38 41 46 50 59 53 53 54 58 60 56 47 48 44 45 48 48 45 56 45 51 52
27 27 28 32 37 41 41 42 44 49 53 56 57 56 56 54 54 56 61 58 55 56 51 51 47 51 47 41 53 47 47 51
23 24 28 35 39 40 43 49 55 55 53 53 51 54 56 54 53 53 56 55 50 46 47 47 48 48 49 48 52 39 30 42
21 25 32 36 40 43 49 50 53 48 43 33 32 35 42 40 36 41 45 49 45 43 37 39 41 43 51 47 44 46 50 36
27 32 36 38 38 39 39 41 36 34 44 34 35 41 42 44 45 45 39 38 39 39 40 44 43 35 36 37 56 36 40 43
29 30 29 31 36 36 32 32 36 37 44 43 44 49 47 40 37 33 30 31 31 33 34 28 29 32 33 29 33 32 29 29
19 29 33 31 29 27 29 36 43 44 43 43 48 44 31 24 20 18 18 21 27 25 27 23 26 25 30 33 32 29 27 31
30 37 28 29 30 32 34 42 42 39 39 42 30 23 16 12 11 14 14 16 16 17 18 18 20 23 27 29 31 29 32 36
22 22 25 29 33 38 43 43 35 36 37 30 16 19 12 12 11 12 16 18 17 18 19 19 19 21 24 25 27 32 31 34
22 25 28 34 37 43 34 27 28 32 28 21 20 18 12 8 10 13 16 15 15 19 19 18 18 16 18 19 22 26 28 28
26 29 32 34 38 39 30 28 30 28 25 23 14 15 9 6 3 9 13 16 20 22 22 22 21 21 20 18 19 19 21 25
26 29 29 33 33 33 29 27 24 22 20 17 13 6 6 9 11 13 19 24 24 21 21 21 21 20 20 20 21 19 19 20
27 28 27 27 28 26 23 20 16 17 16 13 12 13 13 16 19 21 20 19 18 17 16 16 16 17 19 20 21 21 20 21
28 26 28 28 24 22 20 19 17 14 11 8 7 8 14 14 13 12 11 11 11 12 13 12 13 14 16 18 22 24 24 23
Wind_Direction
289 297 293 289 288 288 290 292 292 289 285 279 281 281 282 282 279 277 273 269 264 262 261 259 260 261 259 258 260 262 260 256
290 297 299 300 299 298 298 299 296 292 299 293 288 289 295 300 295 288 281 276 269 264 262 261 253 257 260 259 258 257 258 254
285 294 291 294 298 299 302 303 305 302 304 300 297 296 291 292 293 292 288 284 280 271 263 264 260 257 258 259 255 255 254 254
285 291 304 306 302 301 300 296 293 295 299 297 291 288 290 291 300 291 284 284 283 285 267 267 266 258 266 263 261 251 249 253
283 295 297 296 292 293 288 282 281 283 288 288 289 287 285 284 283 275 272 273 269 267 265 259 262 265 269 259 270 270 257 254
281 287 291 297 296 296 303 299 300 305 301 291 287 285 291 284 277 274 276 280 280 272 267 263 253 252 253 258 259 255 260 268
281 287 293 293 293 299 305 307 307 304 300 299 298 293 287 280 275 274 277 281 284 283 276 272 265 270 270 258 261 256 256 251
286 291 285 288 294 296 300 303 305 303 300 297 292 289 288 286 282 274 272 275 274 274 275 271 269 268 271 274 258 254 240 249
291 287 288 300 305 309 315 313 317 315 319 309 308 307 302 299 299 290 278 274 275 268 269 269 263 266 270 271 273 270 269 245
289 293 306 310 315 317 314 318 317 304 312 312 311 315 305 297 290 292 289 282 273 273 270 267 264 261 277 284 261 275 277 272
303 308 316 310 317 316 317 316 300 299 311 314 311 314 306 303 302 296 285 277 267 268 261 270 277 264 265 274 275 255 263 264
300 311 314 316 314 315 304 292 294 310 312 316 317 315 310 304 301 302 284 300 304 294 298 284 279 275 265 260 274 266 258 258
311 315 316 317 315 312 298 298 312 316 319 322 324 340 338 345 303 288 319 299 304 311 306 302 296 288 276 270 260 260 266 273
301 310 314 308 312 307 308 310 316 318 320 328 329 336 326 331 325 308 296 295 296 298 299 305 305 288 288 279 268 263 259 260
304 305 308 312 312 311 322 312 316 316 318 328 317 324 302 306 315 303 310 312 305 306 307 309 307 298 286 281 272 265 261 265
301 307 309 306 307 312 315 307 311 317 326 328 315 316 313 285 245 293 296 296 301 303 301 303 305 305 304 299 293 283 272 266
302 310 310 310 315 316 308 307 314 321 325 328 310 260 275 296 293 300 302 302 302 302 300 299 298 299 299 299 296 295 283 269
307 310 312 316 316 319 323 324 323 329 324 318 312 274 293 303 303 303 304 307 309 311 309 305 301 300 300 299 296 295 294 288
308 307 312 315 314 316 319 321 317 319 338 322 316 317 302 303 308 311 319 322 324 322 322 321 318 311 306 302 300 295 288 284
Height
3113 3113 3113 3110 3110 3108 3106 3107 3108 3106 3106 3104 3104 3103 3102 3100 3098 3096 3097 3098 3097 3099 3099 3099 3100 3099 3097 3098 3099 3100 3099 3100
3109 3108 3108 3105 3105 3104 3102 3102 3101 3100 3101 3099 3099 3097 3095 3094 3092 3090 3089 3087 3088 3088 3086 3087 3087 3088 3088 3087 3088 3088 3093 3093
3102 3102 3101 3099 3099 3099 3098 3098 3097 3093 3094 3090 3090 3088 3086 3085 3083 3082 3079 3077 3076 3076 3075 3073 3072 3076 3075 3075 3072 3074 3078 3080
3093 3095 3095 3093 3091 3094 3093 3090 3087 3085 3085 3083 3081 3078 3076 3074 3073 3070 3069 3068 3065 3063 3064 3064 3062 3060 3060 3059 3056 3058 3056 3061
3087 3087 3086 3087 3081 3081 3086 3084 3081 3079 3077 3075 3073 3068 3065 3065 3061 3056 3052 3051 3051 3049 3047 3048 3048 3048 3045 3047 3043 3034 3032 3042
3083 3082 3079 3078 3074 3069 3068 3071 3072 3069 3064 3063 3061 3057 3052 3047 3044 3041 3037 3034 3034 3035 3032 3032 3031 3031 3032 3030 3037 3031 3031 3034
3079 3079 3075 3071 3068 3064 3064 3060 3058 3056 3053 3048 3040 3035 3033 3031 3029 3026 3022 3021 3019 3016 3020 3018 3020 3018 3017 3015 3018 3022 3023 3027
3073 3071 3067 3066 3063 3060 3057 3054 3049 3042 3038 3033 3030 3023 3017 3013 3010 3009 3007 3004 3004 3005 3002 3004 3004 3007 3006 3002 3004 3005 3006 3008
3068 3066 3061 3058 3055 3049 3043 3036 3031 3024 3022 3020 3016 3013 3006 3002 2997 2994 2991 2991 2990 2991 2993 2991 2993 2992 2991 2991 2993 2994 2996 2995
3060 3057 3055 3050 3044 3039 3032 3028 3024 3017 3014 3012 3007 3003 2996 2991 2987 2984 2981 2980 2980 2981 2980 2980 2981 2982 2982 2980 2984 2984 2984 2986
3053 3049 3047 3042 3037 3032 3027 3023 3014 3011 3008 3004 2997 2990 2983 2978 2974 2972 2972 2971 2970 2970 2968 2966 2968 2971 2974 2975 2973 2976 2976 2977
3047 3043 3040 3035 3030 3027 3022 3013 3007 3006 3001 2994 2986 2975 2969 2967 2965 2965 2966 2966 2966 2965 2963 2962 2964 2964 2965 2966 2967 2966 2965 2968
3041 3038 3034 3030 3024 3020 3013 3006 3003 2998 2991 2986 2977 2969 2966 2964 2964 2965 2964 2965 2964 2962 2960 2959 2957 2957 2957 2958 2959 2959 2959 2960
3036 3032 3028 3023 3017 3010 3005 3000 2996 2992 2986 2979 2974 2970 2967 2966 2966 2965 2964 2962 2961 2959 2957 2955 2953 2951 2951 2950 2949 2951 2952 2953
3029 3025 3021 3016 3010 3004 3001 2995 2991 2986 2980 2975 2972 2968 2966 2966 2965 2964 2961 2959 2957 2955 2953 2950 2948 2947 2946 2945 2945 2945 2945 2945
3023 3020 3016 3011 3004 2998 2996 2990 2986 2980 2975 2971 2970 2968 2966 2964 2963 2960 2959 2957 2954 2951 2949 2947 2944 2942 2941 2940 2939 2937 2937 2941
3018 3014 3009 3004 2999 2993 2989 2985 2981 2975 2971 2968 2967 2967 2965 2963 2961 2958 2955 2953 2950 2947 2944 2942 2940 2938 2937 2935 2934 2934 2935 2935
3011 3007 3003 2999 2994 2988 2984 2979 2975 2972 2968 2966 2964 2963 2962 2960 2957 2954 2951 2948 2945 2942 2940 2938 2936 2935 2932 2931 2929 2928 2926 2926
3005 3001 2998 2993 2989 2984 2980 2977 2973 2970 2967 2964 2961 2960 2958 2957 2954 2951 2948 2945 2942 2940 2937 2935 2933 2931 2929 2928 2926 2924 2923 2923